Location: Beaver Brook Station
(42.3793°N, 71.2203°W)
Time: 06:51:45
(UTC+00:00)

Cosmos 2227 Rocket - Pass Details

Date: 29 October 2020
Orbit: 839 x 845 km, 71.0° (Epoch: 23 November)

Event Time Altitude Azimuth Distance (km) Brightness Sun altitude
Rises 23:41:35 0° 327° (NNW) 3,406 5.8 -22.7°
Reaches altitude 10° 23:44:13 10° 319° (NW) 2,468 5.2 -23.2°
Maximum altitude 23:49:16 35° 255° (WSW) 1,344 3.8 -24.1°
Drops below altitude 10° 23:54:19 10° 192° (SSW) 2,456 4.7 -25.1°
Sets 23:56:56 0° 183° (S) 3,387 5.3 -25.5°
